Radiation Dose at Monitoring Post of Fukushima Daini Nuclear Power Station
Date,Time,MP-1(microSv/h),MP-2(microSv/h),MP-3(microSv/h),MP-4(microSv/h),MP-5(microSv/h),MP-6(microSv/h),MP-7(microSv/h),Wind Direction,Wind Velocity(m/s),Rain
2020/05/06,00:00,0.182,0.167,0.284,0.255,0.265,0.144,0.087,northwest,3.7,Yes
2020/05/06,00:10,0.182,0.168,0.281,0.256,0.263,0.144,0.087,north-northwest,3.1,Yes
2020/05/06,00:20,0.184,0.169,0.283,0.255,0.264,0.144,0.086,north-northwest,4.4,Yes
2020/05/06,00:30,0.183,0.169,0.282,0.256,0.262,0.145,0.089,north-northwest,2.9,Yes
2020/05/06,00:40,0.184,0.169,0.282,0.255,0.262,0.144,0.088,northwest,4.0,Yes
2020/05/06,00:50,0.182,0.168,0.283,0.254,0.264,0.144,0.088,northwest,2.8,Yes
2020/05/06,01:00,0.182,0.168,0.281,0.255,0.262,0.143,0.088,north-northwest,2.8,Yes
2020/05/06,01:10,0.183,0.169,0.282,0.254,0.264,0.144,0.088,north-northwest,3.9,Yes
2020/05/06,01:20,0.183,0.167,0.282,0.254,0.262,0.144,0.088,north,3.3,Yes
2020/05/06,01:30,0.182,0.167,0.279,0.254,0.262,0.143,0.088,north-northwest,2.0,No
2020/05/06,01:40,0.183,0.166,0.280,0.253,0.263,0.144,0.087,north,2.6,No
2020/05/06,01:50,0.180,0.166,0.279,0.254,0.261,0.142,0.086,north,4.3,No
2020/05/06,02:00,0.180,0.165,0.278,0.252,0.262,0.142,0.087,north,4.7,No
2020/05/06,02:10,0.179,0.165,0.279,0.251,0.260,0.142,0.086,north,5.2,No
2020/05/06,02:20,0.179,0.165,0.278,0.252,0.260,0.142,0.086,north-northwest,4.3,No
2020/05/06,02:30,0.180,0.165,0.278,0.252,0.261,0.142,0.086,north-northwest,4.4,No
2020/05/06,02:40,0.178,0.164,0.276,0.250,0.260,0.141,0.086,north-northwest,4.8,No
2020/05/06,02:50,0.181,0.164,0.277,0.253,0.261,0.143,0.086,north-northwest,4.6,No
2020/05/06,03:00,0.180,0.165,0.278,0.250,0.259,0.141,0.085,north,5.3,No
2020/05/06,03:10,0.179,0.163,0.278,0.252,0.262,0.141,0.086,north,4.4,No
2020/05/06,03:20,0.179,0.164,0.277,0.251,0.261,0.141,0.085,north,4.7,No
2020/05/06,03:30,0.179,0.164,0.277,0.250,0.259,0.141,0.084,north,3.9,No
2020/05/06,03:40,0.178,0.163,0.276,0.251,0.261,0.142,0.086,north,4.1,No
2020/05/06,03:50,0.178,0.164,0.277,0.250,0.258,0.141,0.085,north-northwest,4.1,No
2020/05/06,04:00,0.179,0.164,0.277,0.251,0.260,0.141,0.085,north,4.0,No
2020/05/06,04:10,0.179,0.164,0.276,0.252,0.261,0.141,0.086,north-northwest,4.0,No
2020/05/06,04:20,0.178,0.164,0.278,0.250,0.259,0.141,0.085,north-northwest,3.5,No
2020/05/06,04:30,0.180,0.164,0.277,0.252,0.261,0.141,0.086,north-northwest,4.0,No
2020/05/06,04:40,0.179,0.164,0.278,0.250,0.258,0.141,0.086,north-northwest,4.9,No
2020/05/06,04:50,0.178,0.165,0.278,0.249,0.260,0.141,0.085,north-northwest,4.5,No
2020/05/06,05:00,0.180,0.164,0.276,0.251,0.259,0.141,0.086,north-northwest,4.8,No
2020/05/06,05:10,0.178,0.164,0.277,0.251,0.259,0.142,0.085,north-northwest,5.3,No
2020/05/06,05:20,0.180,0.164,0.276,0.251,0.260,0.141,0.085,north-northwest,5.0,Yes
2020/05/06,05:30,0.180,0.165,0.278,0.250,0.259,0.140,0.085,north-northwest,4.3,No
2020/05/06,05:40,0.179,0.164,0.278,0.250,0.261,0.141,0.086,north-northwest,4.3,No
2020/05/06,05:50,0.180,0.165,0.276,0.252,0.260,0.142,0.085,north-northwest,4.0,No
2020/05/06,06:00,0.178,0.163,0.278,0.251,0.260,0.140,0.085,north,3.8,No
2020/05/06,06:10,0.180,0.165,0.277,0.251,0.261,0.141,0.085,north-northwest,4.4,No
2020/05/06,06:20,0.179,0.165,0.276,0.251,0.258,0.141,0.085,north,3.7,No
2020/05/06,06:30,0.178,0.163,0.278,0.251,0.262,0.141,0.085,north-northwest,3.7,No
2020/05/06,06:40,0.179,0.165,0.277,0.252,0.259,0.141,0.085,north,3.5,No
2020/05/06,06:50,0.177,0.164,0.277,0.250,0.261,0.141,0.085,north-northwest,4.1,No
2020/05/06,07:00,0.179,0.164,0.277,0.250,0.260,0.141,0.085,north-northwest,3.1,No
2020/05/06,07:10,0.179,0.164,0.277,0.251,0.260,0.141,0.085,north-northwest,4.2,No
2020/05/06,07:20,0.179,0.164,0.276,0.251,0.260,0.141,0.085,north-northwest,4.6,No
2020/05/06,07:30,0.179,0.164,0.277,0.251,0.259,0.141,0.085,north-northwest,5.1,No
2020/05/06,07:40,0.179,0.164,0.277,0.250,0.261,0.141,0.085,north-northwest,5.0,No
2020/05/06,07:50,0.180,0.164,0.277,0.250,0.258,0.141,0.085,northwest,4.6,No
2020/05/06,08:00,0.178,0.164,0.277,0.251,0.261,0.140,0.084,north-northwest,4.8,No
2020/05/06,08:10,0.179,0.165,0.277,0.251,0.260,0.141,0.085,north-northwest,4.6,No
2020/05/06,08:20,0.179,0.164,0.278,0.251,0.259,0.141,0.085,north-northwest,3.4,No
2020/05/06,08:30,0.178,0.164,0.277,0.251,0.260,0.141,0.086,north-northwest,2.2,No
2020/05/06,08:40,0.179,0.163,0.277,0.250,0.261,0.141,0.085,northwest,2.0,No
2020/05/06,08:50,0.178,0.165,0.276,0.252,0.259,0.141,0.085,northwest,3.0,No
2020/05/06,09:00,0.179,0.164,0.279,0.250,0.262,0.141,0.085,northwest,4.3,No
2020/05/06,09:10,0.179,0.165,0.277,0.252,0.260,0.141,0.085,north-northwest,3.3,No
2020/05/06,09:20,0.179,0.164,0.277,0.249,0.261,0.140,0.085,north,3.1,No
2020/05/06,09:30,0.179,0.164,0.277,0.252,0.259,0.141,0.086,north-northwest,2.2,No
2020/05/06,09:40,0.179,0.164,0.277,0.250,0.261,0.140,0.086,north-northwest,3.0,No
2020/05/06,09:50,0.179,0.164,0.277,0.252,0.257,0.142,0.086,north-northwest,3.0,No
2020/05/06,10:00,0.178,0.164,0.277,0.251,0.261,0.141,0.085,north-northwest,3.2,No
2020/05/06,10:10,0.180,0.164,0.279,0.251,0.258,0.141,0.085,northwest,1.7,No
2020/05/06,10:20,0.179,0.164,0.278,0.251,0.260,0.140,0.085,northwest,1.8,No
2020/05/06,10:30,0.180,0.164,0.278,0.251,0.258,0.142,0.085,north,1.8,No
2020/05/06,10:40,0.177,0.166,0.277,0.250,0.262,0.141,0.086,north-northwest,1.5,No
2020/05/06,10:50,0.179,0.164,0.279,0.252,0.260,0.141,0.086,north,1.6,No
2020/05/06,11:00,0.178,0.164,0.277,0.250,0.260,0.141,0.085,north-northwest,1.3,No
2020/05/06,11:10,0.180,0.164,0.279,0.252,0.260,0.141,0.085,north,1.5,No
2020/05/06,11:20,0.178,0.164,0.277,0.251,0.259,0.142,0.086,north,1.7,No
2020/05/06,11:30,0.180,0.165,0.279,0.251,0.262,0.141,0.086,northwest,1.3,No
2020/05/06,11:40,0.178,0.165,0.277,0.250,0.258,0.140,0.085,north,1.3,No
2020/05/06,11:50,0.180,0.163,0.278,0.252,0.262,0.141,0.085,north,0.8,No
2020/05/06,12:00,0.178,0.164,0.277,0.251,0.258,0.142,0.086,north,1.1,No
2020/05/06,12:10,0.179,0.164,0.280,0.253,0.261,0.141,0.086,north,1.0,No
2020/05/06,12:20,0.179,0.164,0.278,0.250,0.261,0.143,0.085,north-northwest,0.9,No
2020/05/06,12:30,0.178,0.165,0.278,0.252,0.263,0.141,0.085,-,CALM,No
2020/05/06,12:40,0.179,0.165,0.277,0.251,0.260,0.142,0.086,north-northwest,0.8,No
2020/05/06,12:50,0.178,0.165,0.279,0.252,0.261,0.140,0.086,northwest,0.8,No
2020/05/06,13:00,0.180,0.164,0.277,0.251,0.259,0.141,0.086,west-northwest,1.3,No
2020/05/06,13:10,0.179,0.165,0.279,0.251,0.260,0.141,0.086,west,1.3,No
2020/05/06,13:20,0.180,0.163,0.276,0.251,0.261,0.141,0.086,west-northwest,1.3,No
2020/05/06,13:30,0.179,0.164,0.278,0.251,0.259,0.141,0.085,west-northwest,1.7,Yes
2020/05/06,13:40,0.178,0.165,0.278,0.252,0.261,0.141,0.086,northwest,2.0,Yes
2020/05/06,13:50,0.179,0.165,0.280,0.252,0.260,0.141,0.085,west-northwest,1.0,Yes
2020/05/06,14:00,0.180,0.166,0.279,0.252,0.262,0.144,0.087,northwest,1.0,Yes
2020/05/06,14:10,0.180,0.165,0.279,0.253,0.261,0.141,0.086,west-northwest,1.0,Yes
2020/05/06,14:20,0.180,0.165,0.281,0.254,0.262,0.143,0.087,west-northwest,1.5,Yes
2020/05/06,14:30,0.180,0.167,0.279,0.252,0.262,0.141,0.087,west-northwest,1.1,Yes
2020/05/06,14:40,0.181,0.167,0.280,0.254,0.261,0.144,0.087,west-northwest,0.8,Yes
2020/05/06,14:50,0.182,0.167,0.279,0.253,0.263,0.144,0.089,-,CALM,Yes
2020/05/06,15:00,0.181,0.167,0.279,0.253,0.263,0.144,0.089,-,CALM,Yes
2020/05/06,15:10,0.182,0.167,0.280,0.254,0.264,0.144,0.088,-,CALM,Yes
2020/05/06,15:20,0.181,0.167,0.279,0.253,0.261,0.144,0.088,west-southwest,0.6,Yes
2020/05/06,15:30,0.182,0.167,0.280,0.255,0.264,0.144,0.088,-,CALM,Yes
2020/05/06,15:40,0.182,0.166,0.279,0.253,0.261,0.144,0.088,west,1.2,Yes
2020/05/06,15:50,0.182,0.168,0.280,0.253,0.263,0.145,0.089,north-northwest,0.7,Yes
2020/05/06,16:00,0.182,0.170,0.281,0.254,0.263,0.146,0.089,north-northwest,1.8,Yes
2020/05/06,16:10,0.182,0.168,0.279,0.255,0.261,0.146,0.090,north-northwest,2.1,Yes
2020/05/06,16:20,0.181,0.168,0.279,0.255,0.264,0.145,0.089,north-northwest,3.0,Yes
2020/05/06,16:30,0.182,0.169,0.278,0.253,0.262,0.145,0.090,north,3.3,Yes
2020/05/06,16:40,0.182,0.167,0.279,0.253,0.265,0.146,0.091,north,3.6,Yes
2020/05/06,16:50,0.183,0.168,0.280,0.254,0.263,0.145,0.090,north-northwest,5.2,Yes
2020/05/06,17:00,0.183,0.169,0.278,0.253,0.264,0.146,0.090,north-northwest,4.3,Yes
2020/05/06,17:10,0.182,0.168,0.281,0.255,0.264,0.145,0.091,north-northwest,2.9,Yes
2020/05/06,17:20,0.184,0.169,0.279,0.254,0.263,0.148,0.092,north-northwest,3.6,Yes
2020/05/06,17:30,0.185,0.170,0.280,0.254,0.264,0.149,0.094,north-northwest,3.0,Yes
2020/05/06,17:40,0.184,0.171,0.281,0.255,0.265,0.149,0.094,north,3.2,Yes
2020/05/06,17:50,0.185,0.171,0.278,0.255,0.266,0.148,0.093,north,2.0,Yes
2020/05/06,18:00,0.185,0.171,0.279,0.253,0.264,0.148,0.094,north-northwest,2.0,Yes
2020/05/06,18:10,0.183,0.170,0.279,0.254,0.264,0.147,0.093,north-northwest,2.0,Yes
2020/05/06,18:20,0.183,0.168,0.277,0.253,0.264,0.147,0.092,north-northwest,2.1,Yes
2020/05/06,18:30,0.181,0.167,0.276,0.252,0.261,0.145,0.090,north-northwest,3.1,No
2020/05/06,18:40,0.181,0.166,0.275,0.250,0.262,0.145,0.089,north-northwest,4.0,No
2020/05/06,18:50,0.179,0.165,0.275,0.248,0.259,0.145,0.088,north-northwest,4.2,No
2020/05/06,19:00,0.179,0.165,0.274,0.249,0.260,0.143,0.087,north-northwest,4.1,No
2020/05/06,19:10,0.179,0.164,0.272,0.248,0.258,0.141,0.087,north,4.7,No
2020/05/06,19:20,0.178,0.164,0.273,0.247,0.258,0.142,0.086,north-northwest,4.3,No
2020/05/06,19:30,0.178,0.164,0.272,0.248,0.259,0.141,0.086,north-northwest,4.5,No
2020/05/06,19:40,0.177,0.161,0.271,0.246,0.257,0.141,0.086,north-northwest,5.4,No
2020/05/06,19:50,0.177,0.162,0.274,0.247,0.258,0.140,0.085,north-northwest,5.1,No
2020/05/06,20:00,0.178,0.163,0.272,0.246,0.257,0.140,0.085,north,4.8,No
2020/05/06,20:10,0.176,0.161,0.271,0.246,0.257,0.139,0.084,north,5.0,No
2020/05/06,20:20,0.178,0.162,0.270,0.246,0.258,0.139,0.085,north,6.3,No
2020/05/06,20:30,0.176,0.162,0.272,0.246,0.256,0.140,0.084,north,4.8,No
2020/05/06,20:40,0.177,0.162,0.272,0.245,0.258,0.139,0.084,north,5.1,No
2020/05/06,20:50,0.177,0.162,0.271,0.247,0.256,0.140,0.083,north-northwest,4.5,No
2020/05/06,21:00,0.176,0.162,0.270,0.245,0.257,0.138,0.084,north-northwest,6.7,No
2020/05/06,21:10,0.176,0.161,0.271,0.248,0.257,0.140,0.084,north-northwest,5.3,No
2020/05/06,21:20,0.177,0.163,0.270,0.246,0.256,0.139,0.084,north-northwest,5.3,No
2020/05/06,21:30,0.177,0.161,0.272,0.247,0.259,0.138,0.084,north-northwest,5.9,No
2020/05/06,21:40,0.177,0.162,0.273,0.246,0.256,0.139,0.084,north,5.3,No
2020/05/06,21:50,0.176,0.163,0.271,0.246,0.258,0.139,0.085,north-northwest,4.8,No
2020/05/06,22:00,0.177,0.161,0.272,0.246,0.257,0.140,0.084,north,5.7,No
2020/05/06,22:10,0.177,0.161,0.271,0.247,0.257,0.139,0.084,north-northwest,6.0,No
2020/05/06,22:20,0.176,0.161,0.270,0.246,0.258,0.139,0.084,north-northwest,5.9,No
2020/05/06,22:30,0.177,0.162,0.271,0.247,0.257,0.140,0.084,north,7.2,No
2020/05/06,22:40,0.177,0.161,0.271,0.246,0.257,0.139,0.084,north,5.8,No
2020/05/06,22:50,0.177,0.162,0.271,0.245,0.257,0.138,0.084,north-northwest,4.2,No
2020/05/06,23:00,0.176,0.162,0.272,0.246,0.258,0.139,0.084,north-northwest,5.0,No
2020/05/06,23:10,0.176,0.162,0.272,0.247,0.258,0.139,0.084,north-northwest,5.6,No
2020/05/06,23:20,0.176,0.162,0.272,0.246,0.258,0.139,0.084,north-northwest,8.2,No
2020/05/06,23:30,0.177,0.161,0.272,0.246,0.256,0.141,0.084,north-northwest,7.5,No
2020/05/06,23:40,0.177,0.162,0.272,0.246,0.257,0.139,0.085,north-northwest,7.0,No
2020/05/06,23:50,0.177,0.162,0.271,0.246,0.257,0.140,0.085,north-northwest,6.0,No
